CW7520 Weather Reports


time (UTC)temp
C
wind
direction
speed
KPH
gust
KPH
rain 1hr
cm
rain 24hr
cm
rain mn
cm
humidity
%
barometer
mb
20190425182729 15 316 4.8 16.1 0.00 0.03 0.00 62 1014.2
20190425181829 14 318 4.8 12.9 0.00 0.03 0.00 62 1014.2
20190425180929 14 317 6.4 19.3 0.00 0.03 0.00 62 1014.5
20190425180029 14 311 6.4 19.3 0.00 0.03 0.00 62 1014.5
20190425175129 14 318 4.8 19.3 0.00 0.03 0.00 63 1014.5
20190425174229 14 318 4.8 20.9 0.00 0.03 0.00 63 1014.5
20190425173329 14 329 3.2 14.5 0.00 0.03 0.00 63 1014.5
20190425172429 14 328 4.8 12.9 0.00 0.03 0.00 63 1014.7
20190425171529 14 321 4.8 16.1 0.00 0.03 0.00 62 1014.7
20190425170629 14 340 4.8 14.5 0.00 0.03 0.00 63 1014.9
20190425165729 14 343 6.4 14.5 0.00 0.03 0.00 63 1014.9
20190425164829 14 311 6.4 17.7 0.00 0.03 0.00 63 1015.2
20190425163929 14 298 8.0 17.7 0.00 0.03 0.00 64 1015.4
20190425163029 13 290 6.4 19.3 0.00 0.03 0.00 66 1015.5
20190425162129 13 277 3.2 20.9 0.00 0.03 0.00 68 1015.8
20190425161229 13 279 3.2 12.9 0.00 0.03 0.00 67 1015.9
20190425160329 13 277 3.2 11.3 0.00 0.03 0.00 67 1016.1
20190425154529 13 283 1.6 6.4 0.00 0.03 0.00 66 1016.2
20190425153629 13 292 3.2 6.4 0.00 0.03 0.00 65 1016.1
20190425152729 13 305 3.2 11.3 0.00 0.03 0.00 65 1016.1
20190425151829 14 306 3.2 8.0 0.00 0.03 0.00 65 1016.0
20190425150929 14 285 3.2 11.3 0.00 0.03 0.00 64 1015.9
20190425150029 14 293 1.6 11.3 0.00 0.03 0.00 64 1015.8
20190425145129 14 304 1.6 6.4 0.00 0.03 0.00 63 1015.9
20190425144229 15 298 1.6 4.8 0.00 0.03 0.00 63 1015.9
20190425143329 15 299 1.6 11.3 0.00 0.03 0.00 63 1016.0
20190425142429 15 297 1.6 11.3 0.00 0.03 0.00 62 1016.1
20190425141529 15 312 0.0 4.8 0.00 0.03 0.00 61 1016.0
20190425140629 15 267 1.6 6.4 0.00 0.03 0.00 61 1016.1
20190425135729 15 265 1.6 6.4 0.00 0.03 0.03 61 1016.1
20190425134829 15 269 3.2 6.4 0.00 0.03 0.03 60 1016.3
20190425133929 16 271 3.2 9.7 0.00 0.03 0.03 60 1016.2
20190425133029 16 265 3.2 9.7 0.00 0.03 0.03 60 1016.3
20190425132129 16 261 4.8 9.7 0.00 0.03 0.03 60 1016.4
20190425131229 16 264 4.8 11.3 0.00 0.03 0.03 60 1016.6
20190425130329 16 243 4.8 12.9 0.00 0.03 0.03 60 1016.7
20190425125429 16 344 4.8 12.9 0.00 0.05 0.03 60 1016.6
20190425124529 16 331 3.2 16.1 0.00 0.05 0.03 60 1016.6
20190425123629 16 335 3.2 9.7 0.00 0.05 0.03 60 1016.7
20190425122729 16 342 3.2 16.1 0.00 0.05 0.03 60 1016.7
20190425121829 16 336 3.2 12.9 0.00 0.05 0.03 60 1016.8
20190425120929 16 322 3.2 12.9 0.00 0.05 0.03 59 1016.8
20190425120029 16 314 4.8 14.5 0.00 0.05 0.03 59 1016.9
20190425115129 16 308 4.8 14.5 0.00 0.05 0.03 58 1016.9
20190425114229 16 311 4.8 12.9 0.00 0.05 0.03 58 1016.9
20190425113329 16 302 6.4 16.1 0.00 0.05 0.03 57 1016.9
20190425112429 16 302 6.4 17.7 0.00 0.05 0.03 57 1016.8
20190425111529 16 304 6.4 16.1 0.00 0.05 0.03 56 1028.0
20190425110629 17 305 6.4 16.1 0.00 0.05 0.03 56 1016.7
20190425105729 17 306 8.0 14.5 0.00 0.05 0.03 55 1016.7
20190425104829 17 301 6.4 19.3 0.00 0.05 0.03 55 1016.5
20190425103929 17 298 6.4 17.7 0.00 0.05 0.03 55 1016.8
20190425103029 17 288 8.0 19.3 0.00 0.05 0.03 55 1016.8
20190425102129 17 302 8.0 20.9 0.00 0.05 0.03 56 1016.8
20190425101229 16 296 6.4 16.1 0.00 0.05 0.03 57 1016.9
20190425100329 16 302 4.8 17.7 0.00 0.05 0.03 58 1016.9
20190425095429 16 305 1.6 19.3 0.00 0.05 0.03 60 1017.0
20190425094529 16 309 0.0 11.3 0.00 0.05 0.03 60 1017.0
20190425093629 16 0 0.0 0.0 0.00 0.05 0.03 61 1017.0
20190425092729 16 0 0.0 0.0 0.00 0.05 0.03 60 1016.8
20190425091829 16 0 0.0 0.0 0.00 0.05 0.03 60 1016.9
20190425090929 16 0 0.0 0.0 0.00 0.05 0.03 59 1016.8
20190425090029 16 0 0.0 0.0 0.00 0.05 0.03 59 1016.9
20190425085129 17 0 0.0 0.0 0.00 0.05 0.03 58 1016.9
20190425084229 17 301 0.0 1.6 0.00 0.05 0.03 57 1016.8
20190425083329 17 0 0.0 0.0 0.00 0.05 0.03 55 1016.8
20190425082429 18 0 0.0 0.0 0.00 0.05 0.03 55 1016.7
20190425081529 18 0 1.6 0.0 0.00 0.05 0.03 53 1016.8
20190425080629 18 214 1.6 6.4 0.00 0.05 0.03 52 1017.0
20190425075729 18 213 0.0 9.7 0.00 0.05 0.03 50 1016.9
20190425074829 19 0 0.0 0.0 0.00 0.05 0.03 49 1016.5
20190425073930 19 275 1.6 4.8 0.00 0.05 0.03 48 1016.6
20190425073030 20 265 1.6 6.4 0.00 0.05 0.03 47 1016.5
20190425072129 20 241 3.2 8.0 0.00 0.05 0.03 47 1016.5
20190425071229 20 225 4.8 8.0 0.00 0.05 0.03 47 1016.4
20190425070329 20 223 4.8 9.7 0.00 0.05 0.03 47 1016.5
20190425065429 20 223 3.2 9.7 0.00 0.05 0.03 46 1016.4
20190425064529 20 237 6.4 12.9 0.00 0.05 0.03 45 1016.4
20190425063629 20 224 4.8 12.9 0.00 0.05 0.03 45 1016.5
20190425062729 21 219 3.2 9.7 0.00 0.05 0.03 44 1016.5
20190425061829 21 248 3.2 11.3 0.00 0.05 0.03 44 1016.7
20190425060929 21 235 4.8 9.7 0.00 0.05 0.03 43 1016.8
20190425060029 21 224 6.4 12.9 0.00 0.05 0.03 43 1016.8
20190425055129 21 242 4.8 16.1 0.00 0.05 0.03 43 1016.8
20190425054229 22 248 4.8 12.9 0.00 0.05 0.03 43 1016.9
20190425053329 22 239 6.4 16.1 0.00 0.05 0.03 42 1017.0
20190425051529 22 260 4.8 12.9 0.00 0.05 0.03 44 1017.5
20190425050629 21 236 6.4 14.5 0.00 0.05 0.03 44 1017.6
20190425045729 21 244 4.8 16.1 0.00 0.05 0.03 44 1017.8
20190425044829 21 242 6.4 14.5 0.00 0.05 0.03 46 1017.9
20190425043929 21 258 6.4 16.1 0.00 0.05 0.03 46 1018.0
20190425043029 21 249 6.4 14.5 0.00 0.05 0.03 47 1018.2
20190425042129 21 229 11.3 22.5 0.00 0.05 0.03 47 1018.5
20190425041229 21 234 9.7 22.5 0.00 0.05 0.03 47 1018.7
20190425040329 20 248 11.3 22.5 0.00 0.05 0.03 47 1018.9
20190425035429 20 243 9.7 20.9 0.00 0.05 0.03 48 1019.1
20190425034529 20 248 9.7 20.9 0.00 0.05 0.03 50 1019.2
20190425033629 20 237 11.3 22.5 0.00 0.05 0.03 49 1019.3
20190425032729 20 221 9.7 22.5 0.00 0.05 0.03 52 1019.5
20190425031829 20 252 9.7 30.6 0.00 0.05 0.03 51 1019.6
20190425030929 19 238 9.7 19.3 0.00 0.05 0.03 51 1019.7
20190425030029 18 232 8.0 19.3 0.00 0.05 0.03 54 1019.9
20190425025129 18 239 9.7 20.9 0.00 0.05 0.03 54 1020.0
20190425024229 18 230 9.7 20.9 0.00 0.05 0.03 56 1020.2
20190425023329 18 227 9.7 20.9 0.00 0.05 0.03 56 1020.3
20190425022429 18 240 8.0 24.1 0.00 0.05 0.03 58 1020.6
20190425021529 18 268 6.4 19.3 0.00 0.05 0.03 59 1020.7
20190425020629 18 275 3.2 17.7 0.00 0.05 0.03 60 1020.8
20190425015729 18 258 3.2 9.7 0.00 0.05 0.03 62 1020.9
20190425014829 18 227 4.8 9.7 0.00 0.05 0.03 63 1021.1
20190425013929 18 222 6.4 11.3 0.00 0.05 0.03 66 1021.2
20190425013029 17 268 8.0 16.1 0.00 0.05 0.03 65 1021.5
20190425012129 17 253 4.8 14.5 0.00 0.05 0.03 68 1021.5
20190425011229 17 268 6.4 16.1 0.00 0.05 0.03 71 1021.5
20190425010329 16 245 6.4 19.3 0.00 0.05 0.03 72 1021.6
20190425005429 16 244 6.4 12.9 0.00 0.05 0.03 74 1021.6
20190425004529 16 262 6.4 12.9 0.00 0.05 0.03 78 1021.7
20190425003629 15 259 4.8 17.7 0.00 0.05 0.03 83 1021.7
20190425002729 14 251 3.2 14.5 0.00 0.05 0.03 88 1021.7
20190425001829 14 284 3.2 9.7 0.00 0.05 0.03 90 1021.9
20190425000929 13 292 1.6 11.3 0.00 0.05 0.03 91 1021.9
20190425000029 13 298 1.6 6.4 0.00 0.05 0.03 91 1021.9
20190424235129 13 324 1.6 6.4 0.00 0.05 0.03 92 1022.1
20190424234229 13 307 0.0 3.2 0.00 0.05 0.03 92 1022.2
20190424233329 12 345 0.0 4.8 0.00 0.05 0.03 92 1022.3
20190424232429 12 29 0.0 1.6 0.00 0.05 0.03 92 1022.4
20190424231529 12 0 0.0 0.0 0.00 0.05 0.03 92 1022.6
20190424230629 11 23 0.0 6.4 0.00 0.05 0.03 92 1022.7
20190424225729 11 13 0.0 6.4 0.00 0.05 0.03 92 1022.7
20190424224829 10 59 0.0 4.8 0.00 0.05 0.03 91 1022.8
20190424223929 10 47 0.0 6.4 0.00 0.05 0.03 91 1022.7
20190424223029 10 0 0.0 0.0 0.00 0.05 0.03 91 1022.8
20190424222129 10 0 0.0 0.0 0.00 0.05 0.03 91 1022.7
20190424221229 10 0 0.0 0.0 0.00 0.05 0.03 91 1022.7
20190424220329 10 28 0.0 3.2 0.00 0.05 0.03 91 1022.7
20190424215429 10 44 0.0 4.8 0.00 0.05 0.03 91 1022.7
20190424214529 9 0 0.0 0.0 0.00 0.05 0.03 91 1022.7
20190424213629 8 37 0.0 3.2 0.00 0.05 0.03 90 1022.6
20190424212729 8 24 0.0 1.6 0.00 0.05 0.03 90 1022.6
20190424211829 8 24 0.0 1.6 0.00 0.05 0.03 90 1022.6
20190424210929 8 0 0.0 0.0 0.00 0.05 0.03 90 1022.6
20190424210029 8 0 0.0 0.0 0.00 0.05 0.03 90 1022.7
20190424205129 8 0 0.0 0.0 0.00 0.05 0.03 90 1022.7
20190424204229 8 0 0.0 0.0 0.00 0.05 0.03 90 1022.6
20190424203329 8 0 0.0 0.0 0.03 0.05 0.03 90 1022.6
20190424202429 8 0 0.0 0.0 0.03 0.05 0.03 90 1022.5
20190424201529 9 21 0.0 3.2 0.03 0.05 0.03 90 1022.5
20190424200629 9 0 0.0 0.0 0.03 0.05 0.03 90 1022.5
20190424195729 9 0 0.0 0.0 0.03 0.05 0.03 90 1022.4
20190424194838 9 0 0.0 0.0 0.03 0.05 0.03 89 1022.4
20190424193929 9 0 0.0 0.0 0.03 0.05 0.03 89 1022.5
20190424193029 9 0 0.0 0.0 0.00 0.03 0.00 89 1022.4
20190424192129 9 0 0.0 0.0 0.00 0.03 0.00 89 1022.4
20190424191229 10 21 3.2 6.4 0.00 0.03 0.00 89 1022.4
20190424190329 10 16 4.8 6.4 0.00 0.03 0.00 89 1022.4
20190424185429 10 3 4.8 6.4 0.00 0.03 0.00 89 1022.4
20190424184529 10 5 4.8 8.0 0.00 0.03 0.00 89 1022.3
20190424183629 10 17 1.6 8.0 0.00 0.03 0.00 89 1022.4